TimeCST,TemperatureF,Dew PointF,Humidity,Sea Level PressureIn,VisibilityMPH,Wind Direction,Wind SpeedMPH,Gust SpeedMPH,PrecipitationIn,Events,Conditions,WindDirDegrees,DateUTC
12:53 AM,48.9,37.9,66,30.45,10.0,Calm,Calm,-,N/A,,Clear,0,2013-01-18 06:53:00
1:53 AM,46.0,37.9,73,30.46,10.0,Calm,Calm,-,N/A,,Clear,0,2013-01-18 07:53:00
2:53 AM,46.0,37.9,73,30.46,3.0,West,5.8,-,N/A,,Haze,270,2013-01-18 08:53:00
3:53 AM,44.1,37.9,79,30.46,3.0,Calm,Calm,-,N/A,,Haze,0,2013-01-18 09:53:00
4:53 AM,43.0,39.0,86,30.45,7.0,NW,3.5,-,N/A,,Clear,320,2013-01-18 10:53:00
5:53 AM,43.0,37.9,82,30.45,10.0,NW,3.5,-,N/A,,Clear,310,2013-01-18 11:53:00
6:53 AM,42.1,37.0,82,30.47,10.0,Calm,Calm,-,N/A,,Clear,0,2013-01-18 12:53:00
7:53 AM,43.0,37.0,80,30.48,10.0,NW,3.5,-,N/A,,Clear,310,2013-01-18 13:53:00
8:53 AM,52.0,39.0,61,30.50,10.0,NNW,5.8,-,N/A,,Clear,330,2013-01-18 14:53:00
9:53 AM,57.9,39.0,49,30.51,10.0,NNW,4.6,-,N/A,,Clear,340,2013-01-18 15:53:00
10:53 AM,62.1,41.0,46,30.49,10.0,Calm,Calm,-,N/A,,Clear,0,2013-01-18 16:53:00
11:53 AM,64.9,41.0,42,30.46,10.0,Calm,Calm,-,N/A,,Clear,0,2013-01-18 17:53:00
12:53 PM,64.9,39.0,39,30.41,10.0,Calm,Calm,-,N/A,,Clear,0,2013-01-18 18:53:00
1:53 PM,66.9,39.0,36,30.38,10.0,SE,4.6,-,N/A,,Partly Cloudy,140,2013-01-18 19:53:00
2:53 PM,66.9,39.0,36,30.35,10.0,SE,5.8,-,N/A,,Clear,130,2013-01-18 20:53:00
3:53 PM,66.9,39.0,36,30.34,10.0,SE,5.8,-,N/A,,Clear,140,2013-01-18 21:53:00
4:53 PM,66.0,39.0,37,30.34,10.0,South,5.8,-,N/A,,Clear,170,2013-01-18 22:53:00
5:53 PM,63.0,39.9,43,30.34,10.0,South,4.6,-,N/A,,Clear,180,2013-01-18 23:53:00
6:53 PM,61.0,39.9,46,30.34,10.0,SSW,3.5,-,N/A,,Clear,200,2013-01-19 00:53:00
7:53 PM,57.9,44.1,60,30.36,10.0,Calm,Calm,-,N/A,,Clear,0,2013-01-19 01:53:00
8:53 PM,57.9,45.0,62,30.36,10.0,East,8.1,-,N/A,,Clear,100,2013-01-19 02:53:00
9:53 PM,57.0,45.0,64,30.35,10.0,ESE,6.9,-,N/A,,Clear,110,2013-01-19 03:53:00
10:53 PM,52.0,45.0,77,30.33,10.0,SE,5.8,-,N/A,,Clear,130,2013-01-19 04:53:00
11:53 PM,52.0,45.0,77,30.32,10.0,SE,3.5,-,N/A,,Clear,130,2013-01-19 05:53:00